#datetime,building,power
2024-01-25T00:00:00,hld,2.83
2024-01-25T00:01:00,hld,2.77
2024-01-25T00:02:00,hld,2.77
2024-01-25T00:03:00,hld,2.78
2024-01-25T00:04:00,hld,3.30
2024-01-25T00:05:00,hld,3.28
2024-01-25T00:06:00,hld,3.29
2024-01-25T00:07:00,hld,3.27
2024-01-25T00:08:00,hld,3.22
2024-01-25T00:09:00,hld,4.73
2024-01-25T00:10:00,hld,3.23
2024-01-25T00:11:00,hld,3.28
2024-01-25T00:12:00,hld,3.23
2024-01-25T00:13:00,hld,3.23
2024-01-25T00:14:00,hld,3.95
2024-01-25T00:15:00,hld,3.24
2024-01-25T00:16:00,hld,3.26
2024-01-25T00:17:00,hld,3.23
2024-01-25T00:18:00,hld,2.78
2024-01-25T00:19:00,hld,2.79
2024-01-25T00:20:00,hld,2.79
2024-01-25T00:21:00,hld,2.79
2024-01-25T00:22:00,hld,3.01
2024-01-25T00:23:00,hld,2.97
2024-01-25T00:24:00,hld,2.95
2024-01-25T00:25:00,hld,2.96
2024-01-25T00:26:00,hld,2.93
2024-01-25T00:27:00,hld,2.94
2024-01-25T00:28:00,hld,2.92
2024-01-25T00:29:00,hld,2.93
2024-01-25T00:30:00,hld,2.94
2024-01-25T00:31:00,hld,2.88
2024-01-25T00:32:00,hld,2.85
2024-01-25T00:33:00,hld,2.96
2024-01-25T00:34:00,hld,2.91
2024-01-25T00:35:00,hld,2.94
2024-01-25T00:36:00,hld,2.95
2024-01-25T00:37:00,hld,2.93
2024-01-25T00:38:00,hld,2.95
2024-01-25T00:39:00,hld,3.24
2024-01-25T00:40:00,hld,2.94
2024-01-25T00:41:00,hld,2.95
2024-01-25T00:42:00,hld,2.96
2024-01-25T00:43:00,hld,2.93
2024-01-25T00:44:00,hld,3.47
2024-01-25T00:45:00,hld,2.93
2024-01-25T00:46:00,hld,2.94
2024-01-25T00:47:00,hld,2.96
2024-01-25T00:48:00,hld,3.58
2024-01-25T00:49:00,hld,2.93
2024-01-25T00:50:00,hld,2.95
2024-01-25T00:51:00,hld,2.90
2024-01-25T00:52:00,hld,2.92
2024-01-25T00:53:00,hld,2.81
2024-01-25T00:54:00,hld,2.81
2024-01-25T00:55:00,hld,2.80
2024-01-25T00:56:00,hld,3.56
2024-01-25T00:57:00,hld,2.81
2024-01-25T00:58:00,hld,2.78
2024-01-25T00:59:00,hld,2.79
2024-01-25T01:00:00,hld,2.81
2024-01-25T01:01:00,hld,2.80
2024-01-25T01:02:00,hld,2.81
2024-01-25T01:03:00,hld,2.80
2024-01-25T01:04:00,hld,2.80
2024-01-25T01:05:00,hld,2.87
2024-01-25T01:06:00,hld,2.81
2024-01-25T01:07:00,hld,2.81
2024-01-25T01:08:00,hld,2.81
2024-01-25T01:09:00,hld,2.79
2024-01-25T01:10:00,hld,2.83
2024-01-25T01:11:00,hld,2.77
2024-01-25T01:12:00,hld,2.79
2024-01-25T01:13:00,hld,2.80
2024-01-25T01:14:00,hld,2.80
2024-01-25T01:15:00,hld,2.79
2024-01-25T01:16:00,hld,3.27
2024-01-25T01:17:00,hld,2.79
2024-01-25T01:18:00,hld,2.93
2024-01-25T01:19:00,hld,2.91
2024-01-25T01:20:00,hld,2.91
2024-01-25T01:21:00,hld,2.89
2024-01-25T01:22:00,hld,2.89
2024-01-25T01:23:00,hld,2.91
2024-01-25T01:24:00,hld,2.93
2024-01-25T01:25:00,hld,2.89
2024-01-25T01:26:00,hld,2.90
2024-01-25T01:27:00,hld,2.77
2024-01-25T01:28:00,hld,2.78
2024-01-25T01:29:00,hld,2.78
2024-01-25T01:30:00,hld,2.80
2024-01-25T01:31:00,hld,2.80
2024-01-25T01:32:00,hld,2.80
2024-01-25T01:33:00,hld,2.75
2024-01-25T01:34:00,hld,2.79
2024-01-25T01:35:00,hld,2.79
2024-01-25T01:36:00,hld,2.83
2024-01-25T01:37:00,hld,2.78
2024-01-25T01:38:00,hld,2.80
2024-01-25T01:39:00,hld,3.43
2024-01-25T01:40:00,hld,2.91
2024-01-25T01:41:00,hld,2.89
2024-01-25T01:42:00,hld,2.90
2024-01-25T01:43:00,hld,2.94
2024-01-25T01:44:00,hld,2.89
2024-01-25T01:45:00,hld,3.01
2024-01-25T01:46:00,hld,2.90
2024-01-25T01:47:00,hld,2.92
2024-01-25T01:48:00,hld,2.92
2024-01-25T01:49:00,hld,2.90
2024-01-25T01:50:00,hld,2.89
2024-01-25T01:51:00,hld,2.90
2024-01-25T01:52:00,hld,2.90
2024-01-25T01:53:00,hld,2.90
2024-01-25T01:54:00,hld,2.81
2024-01-25T01:55:00,hld,2.79
2024-01-25T01:56:00,hld,2.79
2024-01-25T01:57:00,hld,2.80
2024-01-25T01:58:00,hld,2.80
2024-01-25T01:59:00,hld,2.82
2024-01-25T02:00:00,hld,2.78
2024-01-25T02:01:00,hld,2.79
2024-01-25T02:02:00,hld,2.79
2024-01-25T02:03:00,hld,3.07
2024-01-25T02:04:00,hld,2.80
2024-01-25T02:05:00,hld,2.79
2024-01-25T02:06:00,hld,2.80
2024-01-25T02:07:00,hld,2.76
2024-01-25T02:08:00,hld,2.83
2024-01-25T02:09:00,hld,2.79
2024-01-25T02:10:00,hld,2.84
2024-01-25T02:11:00,hld,2.83
2024-01-25T02:12:00,hld,2.82
2024-01-25T02:13:00,hld,2.80
2024-01-25T02:14:00,hld,2.80
2024-01-25T02:15:00,hld,2.79
2024-01-25T02:16:00,hld,2.80
2024-01-25T02:17:00,hld,2.78
2024-01-25T02:18:00,hld,2.80
2024-01-25T02:19:00,hld,2.81
2024-01-25T02:20:00,hld,2.84
2024-01-25T02:21:00,hld,2.78
2024-01-25T02:22:00,hld,2.81
2024-01-25T02:23:00,hld,11.30
2024-01-25T02:24:00,hld,11.29
2024-01-25T02:25:00,hld,11.03
2024-01-25T02:26:00,hld,11.03
2024-01-25T02:27:00,hld,10.93
2024-01-25T02:28:00,hld,2.89
2024-01-25T02:29:00,hld,2.87
2024-01-25T02:30:00,hld,2.87
2024-01-25T02:31:00,hld,2.89
2024-01-25T02:32:00,hld,2.90
2024-01-25T02:33:00,hld,2.91
2024-01-25T02:34:00,hld,2.84
2024-01-25T02:35:00,hld,2.77
2024-01-25T02:36:00,hld,2.79
2024-01-25T02:37:00,hld,2.78
2024-01-25T02:38:00,hld,2.77
2024-01-25T02:39:00,hld,2.78
2024-01-25T02:40:00,hld,2.77
2024-01-25T02:41:00,hld,2.78
2024-01-25T02:42:00,hld,2.80
2024-01-25T02:43:00,hld,2.79
2024-01-25T02:44:00,hld,2.75
2024-01-25T02:45:00,hld,3.43
2024-01-25T02:46:00,hld,2.77
2024-01-25T02:47:00,hld,2.96
2024-01-25T02:48:00,hld,2.93
2024-01-25T02:49:00,hld,2.92
2024-01-25T02:50:00,hld,2.92
2024-01-25T02:51:00,hld,2.95
2024-01-25T02:52:00,hld,2.89
2024-01-25T02:53:00,hld,2.93
2024-01-25T02:54:00,hld,2.90
2024-01-25T02:55:00,hld,2.90
2024-01-25T02:56:00,hld,2.87
2024-01-25T02:57:00,hld,2.86
2024-01-25T02:58:00,hld,2.92
2024-01-25T02:59:00,hld,2.91
2024-01-25T03:00:00,hld,2.90
2024-01-25T03:01:00,hld,2.78
2024-01-25T03:02:00,hld,2.79
2024-01-25T03:03:00,hld,2.84
2024-01-25T03:04:00,hld,2.83
2024-01-25T03:05:00,hld,2.80
2024-01-25T03:06:00,hld,2.79
2024-01-25T03:07:00,hld,2.77
2024-01-25T03:08:00,hld,2.81
2024-01-25T03:09:00,hld,2.77
2024-01-25T03:10:00,hld,2.80
2024-01-25T03:11:00,hld,2.79
2024-01-25T03:12:00,hld,2.74
2024-01-25T03:13:00,hld,2.78
2024-01-25T03:14:00,hld,2.77
2024-01-25T03:15:00,hld,2.81
2024-01-25T03:16:00,hld,2.77
2024-01-25T03:17:00,hld,2.78
2024-01-25T03:18:00,hld,2.78
2024-01-25T03:19:00,hld,2.76
2024-01-25T03:20:00,hld,2.79
2024-01-25T03:21:00,hld,2.78
2024-01-25T03:22:00,hld,3.08
2024-01-25T03:23:00,hld,2.76
2024-01-25T03:24:00,hld,2.78
2024-01-25T03:25:00,hld,2.80
2024-01-25T03:26:00,hld,4.26
2024-01-25T03:27:00,hld,2.78
2024-01-25T03:28:00,hld,2.77
2024-01-25T03:29:00,hld,2.80
2024-01-25T03:30:00,hld,2.80
2024-01-25T03:31:00,hld,2.79
2024-01-25T03:32:00,hld,3.52
2024-01-25T03:33:00,hld,2.77
2024-01-25T03:34:00,hld,2.91
2024-01-25T03:35:00,hld,2.88
2024-01-25T03:36:00,hld,2.92
2024-01-25T03:37:00,hld,2.93
2024-01-25T03:38:00,hld,2.92
2024-01-25T03:39:00,hld,2.86
2024-01-25T03:40:00,hld,2.90
2024-01-25T03:41:00,hld,2.90
2024-01-25T03:42:00,hld,2.90
2024-01-25T03:43:00,hld,2.79
2024-01-25T03:44:00,hld,2.79
2024-01-25T03:45:00,hld,2.79
2024-01-25T03:46:00,hld,2.80
2024-01-25T03:47:00,hld,2.83
2024-01-25T03:48:00,hld,2.84
2024-01-25T03:49:00,hld,2.81
2024-01-25T03:50:00,hld,2.85
2024-01-25T03:51:00,hld,2.79
2024-01-25T03:52:00,hld,2.80
2024-01-25T03:53:00,hld,2.79
2024-01-25T03:54:00,hld,2.83
2024-01-25T03:55:00,hld,2.79
2024-01-25T03:56:00,hld,2.95
2024-01-25T03:57:00,hld,2.94
2024-01-25T03:58:00,hld,2.93
2024-01-25T03:59:00,hld,2.95
2024-01-25T04:00:00,hld,2.93
2024-01-25T04:01:00,hld,2.93
2024-01-25T04:02:00,hld,2.92
2024-01-25T04:03:00,hld,2.92
2024-01-25T04:04:00,hld,2.99
2024-01-25T04:05:00,hld,2.93
2024-01-25T04:06:00,hld,2.90
2024-01-25T04:07:00,hld,2.94
2024-01-25T04:08:00,hld,3.32
2024-01-25T04:09:00,hld,2.78
2024-01-25T04:10:00,hld,2.75
2024-01-25T04:11:00,hld,2.79
2024-01-25T04:12:00,hld,2.77
2024-01-25T04:13:00,hld,2.78
2024-01-25T04:14:00,hld,2.78
2024-01-25T04:15:00,hld,4.24
2024-01-25T04:16:00,hld,2.74
2024-01-25T04:17:00,hld,2.78
2024-01-25T04:18:00,hld,2.79
2024-01-25T04:19:00,hld,2.77
2024-01-25T04:20:00,hld,2.79
2024-01-25T04:21:00,hld,2.76
2024-01-25T04:22:00,hld,2.74
2024-01-25T04:23:00,hld,2.76
2024-01-25T04:24:00,hld,2.75
2024-01-25T04:25:00,hld,2.77
2024-01-25T04:26:00,hld,2.74
2024-01-25T04:27:00,hld,2.72
2024-01-25T04:28:00,hld,2.76
2024-01-25T04:29:00,hld,2.75
2024-01-25T04:30:00,hld,2.76
2024-01-25T04:31:00,hld,2.76
2024-01-25T04:32:00,hld,2.74
2024-01-25T04:33:00,hld,2.90
2024-01-25T04:34:00,hld,2.76
2024-01-25T04:35:00,hld,2.76
2024-01-25T04:36:00,hld,2.75
2024-01-25T04:37:00,hld,2.71
2024-01-25T04:38:00,hld,2.71
2024-01-25T04:39:00,hld,2.71
2024-01-25T04:40:00,hld,6.85
2024-01-25T04:41:00,hld,6.86
2024-01-25T04:42:00,hld,6.88
2024-01-25T04:43:00,hld,7.52
2024-01-25T04:44:00,hld,5.03
2024-01-25T04:45:00,hld,2.92
2024-01-25T04:46:00,hld,2.94
2024-01-25T04:47:00,hld,2.91
2024-01-25T04:48:00,hld,2.91
2024-01-25T04:49:00,hld,2.97
2024-01-25T04:50:00,hld,2.90
2024-01-25T04:51:00,hld,3.55
2024-01-25T04:52:00,hld,2.79
2024-01-25T04:53:00,hld,2.79
2024-01-25T04:54:00,hld,2.80
2024-01-25T04:55:00,hld,2.81
2024-01-25T04:56:00,hld,2.78
2024-01-25T04:57:00,hld,2.83
2024-01-25T04:58:00,hld,2.83
2024-01-25T04:59:00,hld,2.80
2024-01-25T05:00:00,hld,2.81
2024-01-25T05:01:00,hld,2.92
2024-01-25T05:02:00,hld,2.79
2024-01-25T05:03:00,hld,2.76
2024-01-25T05:04:00,hld,2.83
2024-01-25T05:05:00,hld,2.82
2024-01-25T05:06:00,hld,2.79
2024-01-25T05:07:00,hld,3.00
2024-01-25T05:08:00,hld,2.88
2024-01-25T05:09:00,hld,3.31
2024-01-25T05:10:00,hld,2.93
2024-01-25T05:11:00,hld,2.97
2024-01-25T05:12:00,hld,2.92
2024-01-25T05:13:00,hld,2.90
2024-01-25T05:14:00,hld,2.89
2024-01-25T05:15:00,hld,2.88
2024-01-25T05:16:00,hld,2.92
2024-01-25T05:17:00,hld,2.94
2024-01-25T05:18:00,hld,2.90
2024-01-25T05:19:00,hld,2.86
2024-01-25T05:20:00,hld,2.78
2024-01-25T05:21:00,hld,2.77
2024-01-25T05:22:00,hld,2.80
2024-01-25T05:23:00,hld,2.76
2024-01-25T05:24:00,hld,2.74
2024-01-25T05:25:00,hld,2.75
2024-01-25T05:26:00,hld,2.75
2024-01-25T05:27:00,hld,2.78
2024-01-25T05:28:00,hld,2.79
2024-01-25T05:29:00,hld,2.77
2024-01-25T05:30:00,hld,2.79
2024-01-25T05:31:00,hld,3.47
2024-01-25T05:32:00,hld,2.76
2024-01-25T05:33:00,hld,2.77
2024-01-25T05:34:00,hld,2.79
2024-01-25T05:35:00,hld,2.79
2024-01-25T05:36:00,hld,2.79
2024-01-25T05:37:00,hld,2.78
2024-01-25T05:38:00,hld,2.78
2024-01-25T05:39:00,hld,3.01
2024-01-25T05:40:00,hld,3.40
2024-01-25T05:41:00,hld,2.76
2024-01-25T05:42:00,hld,2.78
2024-01-25T05:43:00,hld,2.81
2024-01-25T05:44:00,hld,2.78
2024-01-25T05:45:00,hld,2.79
2024-01-25T05:46:00,hld,2.80
2024-01-25T05:47:00,hld,2.77
2024-01-25T05:48:00,hld,2.90
2024-01-25T05:49:00,hld,2.79
2024-01-25T05:50:00,hld,2.76
2024-01-25T05:51:00,hld,2.79
2024-01-25T05:52:00,hld,2.78
2024-01-25T05:53:00,hld,2.80
2024-01-25T05:54:00,hld,2.94
2024-01-25T05:55:00,hld,2.90
2024-01-25T05:56:00,hld,2.94
2024-01-25T05:57:00,hld,2.89
2024-01-25T05:58:00,hld,2.89
2024-01-25T05:59:00,hld,2.91
2024-01-25T06:00:00,hld,2.90
2024-01-25T06:01:00,hld,11.62
2024-01-25T06:02:00,hld,11.41
2024-01-25T06:03:00,hld,11.16
2024-01-25T06:04:00,hld,11.04
2024-01-25T06:05:00,hld,10.89
2024-01-25T06:06:00,hld,3.18
2024-01-25T06:07:00,hld,3.17
2024-01-25T06:08:00,hld,3.15
2024-01-25T06:09:00,hld,3.17
2024-01-25T06:10:00,hld,4.27
2024-01-25T06:11:00,hld,4.37
2024-01-25T06:12:00,hld,5.44
2024-01-25T06:13:00,hld,10.23
2024-01-25T06:14:00,hld,7.51
2024-01-25T06:15:00,hld,7.50
2024-01-25T06:16:00,hld,7.47
2024-01-25T06:17:00,hld,7.48
2024-01-25T06:18:00,hld,7.47
2024-01-25T06:19:00,hld,7.63
2024-01-25T06:20:00,hld,7.60
2024-01-25T06:21:00,hld,4.56
2024-01-25T06:22:00,hld,4.53
2024-01-25T06:23:00,hld,4.49
2024-01-25T06:24:00,hld,4.53
2024-01-25T06:25:00,hld,4.52
2024-01-25T06:26:00,hld,4.49
2024-01-25T06:27:00,hld,4.52
2024-01-25T06:28:00,hld,4.50
2024-01-25T06:29:00,hld,4.50
2024-01-25T06:30:00,hld,4.51
2024-01-25T06:31:00,hld,4.48
2024-01-25T06:32:00,hld,4.63
2024-01-25T06:33:00,hld,4.52
2024-01-25T06:34:00,hld,4.53
2024-01-25T06:35:00,hld,4.54
2024-01-25T06:36:00,hld,4.54
2024-01-25T06:37:00,hld,8.59
2024-01-25T06:38:00,hld,8.54
2024-01-25T06:39:00,hld,8.60
2024-01-25T06:40:00,hld,8.61
2024-01-25T06:41:00,hld,4.65
2024-01-25T06:42:00,hld,4.69
2024-01-25T06:43:00,hld,4.69
2024-01-25T06:44:00,hld,4.68
2024-01-25T06:45:00,hld,4.70
2024-01-25T06:46:00,hld,4.71
2024-01-25T06:47:00,hld,4.75
2024-01-25T06:48:00,hld,4.70
2024-01-25T06:49:00,hld,4.64
2024-01-25T06:50:00,hld,4.75
2024-01-25T06:51:00,hld,5.05
2024-01-25T06:52:00,hld,4.86
2024-01-25T06:53:00,hld,4.89
2024-01-25T06:54:00,hld,4.88
2024-01-25T06:55:00,hld,4.92
2024-01-25T06:56:00,hld,4.89
2024-01-25T06:57:00,hld,4.90
2024-01-25T06:58:00,hld,4.87
2024-01-25T06:59:00,hld,4.83
2024-01-25T07:00:00,hld,4.84
2024-01-25T07:01:00,hld,4.86
2024-01-25T07:02:00,hld,4.76
2024-01-25T07:03:00,hld,4.43
2024-01-25T07:04:00,hld,4.40
2024-01-25T07:05:00,hld,4.43
2024-01-25T07:06:00,hld,4.45
2024-01-25T07:07:00,hld,4.55
2024-01-25T07:08:00,hld,4.41
2024-01-25T07:09:00,hld,4.17
2024-01-25T07:10:00,hld,4.14
2024-01-25T07:11:00,hld,4.13
2024-01-25T07:12:00,hld,4.11
2024-01-25T07:13:00,hld,4.12
2024-01-25T07:14:00,hld,4.15
2024-01-25T07:15:00,hld,4.11
2024-01-25T07:16:00,hld,3.73
2024-01-25T07:17:00,hld,3.74
2024-01-25T07:18:00,hld,3.77
2024-01-25T07:19:00,hld,3.77
2024-01-25T07:20:00,hld,3.76
2024-01-25T07:21:00,hld,3.78
2024-01-25T07:22:00,hld,3.76
2024-01-25T07:23:00,hld,3.78
2024-01-25T07:24:00,hld,3.78
2024-01-25T07:25:00,hld,3.77
2024-01-25T07:26:00,hld,3.76
2024-01-25T07:27:00,hld,3.77
2024-01-25T07:28:00,hld,3.74
2024-01-25T07:29:00,hld,3.74
2024-01-25T07:30:00,hld,3.78
2024-01-25T07:31:00,hld,3.77
2024-01-25T07:32:00,hld,5.41
2024-01-25T07:33:00,hld,3.87
2024-01-25T07:34:00,hld,3.89
2024-01-25T07:35:00,hld,3.90
2024-01-25T07:36:00,hld,3.88
2024-01-25T07:37:00,hld,3.92
2024-01-25T07:38:00,hld,4.61
2024-01-25T07:39:00,hld,3.86
2024-01-25T07:40:00,hld,4.51
2024-01-25T07:41:00,hld,3.88
2024-01-25T07:42:00,hld,3.90
2024-01-25T07:43:00,hld,3.91
2024-01-25T07:44:00,hld,3.86
2024-01-25T07:45:00,hld,3.91
2024-01-25T07:46:00,hld,3.81
2024-01-25T07:47:00,hld,3.84
2024-01-25T07:48:00,hld,3.77
2024-01-25T07:49:00,hld,3.76
2024-01-25T07:50:00,hld,4.46
2024-01-25T07:51:00,hld,3.84
2024-01-25T07:52:00,hld,3.80
2024-01-25T07:53:00,hld,3.80
2024-01-25T07:54:00,hld,3.79
2024-01-25T07:55:00,hld,3.81
2024-01-25T07:56:00,hld,3.80
2024-01-25T07:57:00,hld,3.80
2024-01-25T07:58:00,hld,3.79
2024-01-25T07:59:00,hld,3.78
2024-01-25T08:00:00,hld,3.80
2024-01-25T08:01:00,hld,3.81
2024-01-25T08:02:00,hld,3.79
2024-01-25T08:03:00,hld,3.79
2024-01-25T08:04:00,hld,3.82
2024-01-25T08:05:00,hld,3.79
2024-01-25T08:06:00,hld,3.79
2024-01-25T08:07:00,hld,3.78
2024-01-25T08:08:00,hld,3.80
2024-01-25T08:09:00,hld,3.77
2024-01-25T08:10:00,hld,3.79
2024-01-25T08:11:00,hld,3.79
2024-01-25T08:12:00,hld,3.82
2024-01-25T08:13:00,hld,3.79
2024-01-25T08:14:00,hld,3.79
2024-01-25T08:15:00,hld,3.80
2024-01-25T08:16:00,hld,3.79
2024-01-25T08:17:00,hld,3.82
2024-01-25T08:18:00,hld,3.81
2024-01-25T08:19:00,hld,3.76
2024-01-25T08:20:00,hld,3.83
2024-01-25T08:21:00,hld,5.46
2024-01-25T08:22:00,hld,3.94
2024-01-25T08:23:00,hld,3.94
2024-01-25T08:24:00,hld,3.90
2024-01-25T08:25:00,hld,3.92
2024-01-25T08:26:00,hld,3.92
2024-01-25T08:27:00,hld,3.90
2024-01-25T08:28:00,hld,3.95
2024-01-25T08:29:00,hld,3.80
2024-01-25T08:30:00,hld,3.83
2024-01-25T08:31:00,hld,3.78
2024-01-25T08:32:00,hld,3.82
2024-01-25T08:33:00,hld,3.80
2024-01-25T08:34:00,hld,4.37
2024-01-25T08:35:00,hld,8.29
2024-01-25T08:36:00,hld,8.38
2024-01-25T08:37:00,hld,6.81
2024-01-25T08:38:00,hld,6.82
2024-01-25T08:39:00,hld,6.67
2024-01-25T08:40:00,hld,8.21
2024-01-25T08:41:00,hld,8.20
2024-01-25T08:42:00,hld,6.74
2024-01-25T08:43:00,hld,6.72
2024-01-25T08:44:00,hld,6.75
2024-01-25T08:45:00,hld,6.95
2024-01-25T08:46:00,hld,6.84
2024-01-25T08:47:00,hld,6.74
2024-01-25T08:48:00,hld,6.72
2024-01-25T08:49:00,hld,6.77
2024-01-25T08:50:00,hld,7.16
2024-01-25T08:51:00,hld,6.81
2024-01-25T08:52:00,hld,6.78
2024-01-25T08:53:00,hld,10.74
2024-01-25T08:54:00,hld,10.67
2024-01-25T08:55:00,hld,10.71
2024-01-25T08:56:00,hld,10.69
2024-01-25T08:57:00,hld,10.74
2024-01-25T08:58:00,hld,6.78
2024-01-25T08:59:00,hld,6.73
2024-01-25T09:00:00,hld,7.07
2024-01-25T09:01:00,hld,6.91
2024-01-25T09:02:00,hld,6.91
2024-01-25T09:03:00,hld,6.95
2024-01-25T09:04:00,hld,7.11
2024-01-25T09:05:00,hld,7.07
2024-01-25T09:06:00,hld,7.03
2024-01-25T09:07:00,hld,7.13
2024-01-25T09:08:00,hld,6.97
2024-01-25T09:09:00,hld,6.94
2024-01-25T09:10:00,hld,7.04
2024-01-25T09:11:00,hld,7.02
2024-01-25T09:12:00,hld,6.96
2024-01-25T09:13:00,hld,15.70
2024-01-25T09:14:00,hld,15.43
2024-01-25T09:15:00,hld,15.28
2024-01-25T09:16:00,hld,15.15
2024-01-25T09:17:00,hld,14.57
2024-01-25T09:18:00,hld,6.58
2024-01-25T09:19:00,hld,6.54
2024-01-25T09:20:00,hld,6.52
2024-01-25T09:21:00,hld,6.39
2024-01-25T09:22:00,hld,6.33
2024-01-25T09:23:00,hld,6.53
2024-01-25T09:24:00,hld,6.94
2024-01-25T09:25:00,hld,6.84
2024-01-25T09:26:00,hld,6.88
2024-01-25T09:27:00,hld,6.82
2024-01-25T09:28:00,hld,6.86
2024-01-25T09:29:00,hld,6.84
2024-01-25T09:30:00,hld,6.88
2024-01-25T09:31:00,hld,7.06
2024-01-25T09:32:00,hld,7.01
2024-01-25T09:33:00,hld,6.99
2024-01-25T09:34:00,hld,6.96
2024-01-25T09:35:00,hld,6.96
2024-01-25T09:36:00,hld,6.99
2024-01-25T09:37:00,hld,7.08
2024-01-25T09:38:00,hld,7.15
2024-01-25T09:39:00,hld,7.21
2024-01-25T09:40:00,hld,7.12
2024-01-25T09:41:00,hld,7.13
2024-01-25T09:42:00,hld,7.71
2024-01-25T09:43:00,hld,7.43
2024-01-25T09:44:00,hld,7.10
2024-01-25T09:45:00,hld,7.11
2024-01-25T09:46:00,hld,7.19
2024-01-25T09:47:00,hld,7.17
2024-01-25T09:48:00,hld,7.10
2024-01-25T09:49:00,hld,7.09
2024-01-25T09:50:00,hld,7.06
2024-01-25T09:51:00,hld,7.06
2024-01-25T09:52:00,hld,7.04
2024-01-25T09:53:00,hld,7.00
2024-01-25T09:54:00,hld,7.01
2024-01-25T09:55:00,hld,7.73
2024-01-25T09:56:00,hld,7.10
2024-01-25T09:57:00,hld,7.11
2024-01-25T09:58:00,hld,7.19
2024-01-25T09:59:00,hld,7.38
2024-01-25T10:00:00,hld,8.34
2024-01-25T10:01:00,hld,8.79
2024-01-25T10:02:00,hld,10.91
2024-01-25T10:03:00,hld,10.30
2024-01-25T10:04:00,hld,10.32
2024-01-25T10:05:00,hld,10.21
2024-01-25T10:06:00,hld,10.20
2024-01-25T10:07:00,hld,10.08
2024-01-25T10:08:00,hld,10.07
2024-01-25T10:09:00,hld,10.05
2024-01-25T10:10:00,hld,10.06
2024-01-25T10:11:00,hld,10.21
2024-01-25T10:12:00,hld,10.24
2024-01-25T10:13:00,hld,10.20
2024-01-25T10:14:00,hld,10.20
2024-01-25T10:15:00,hld,10.27
2024-01-25T10:16:00,hld,10.29
2024-01-25T10:17:00,hld,10.37
2024-01-25T10:18:00,hld,10.71
2024-01-25T10:19:00,hld,10.68
2024-01-25T10:20:00,hld,10.63
2024-01-25T10:21:00,hld,10.60
2024-01-25T10:22:00,hld,10.70
2024-01-25T10:23:00,hld,10.69
2024-01-25T10:24:00,hld,10.73
2024-01-25T10:25:00,hld,10.74
2024-01-25T10:26:00,hld,10.62
2024-01-25T10:27:00,hld,12.01
2024-01-25T10:28:00,hld,11.94
2024-01-25T10:29:00,hld,11.99
2024-01-25T10:30:00,hld,12.18
2024-01-25T10:31:00,hld,12.83
2024-01-25T10:32:00,hld,12.08
2024-01-25T10:33:00,hld,10.72
2024-01-25T10:34:00,hld,10.72
2024-01-25T10:35:00,hld,10.72
2024-01-25T10:36:00,hld,10.84
2024-01-25T10:37:00,hld,10.82
2024-01-25T10:38:00,hld,10.75
2024-01-25T10:39:00,hld,10.84
2024-01-25T10:40:00,hld,10.79
2024-01-25T10:41:00,hld,10.82
2024-01-25T10:42:00,hld,11.54
2024-01-25T10:43:00,hld,10.89
2024-01-25T10:44:00,hld,10.77
2024-01-25T10:45:00,hld,10.74
2024-01-25T10:46:00,hld,10.70
2024-01-25T10:47:00,hld,10.73
2024-01-25T10:48:00,hld,10.72
2024-01-25T10:49:00,hld,10.72
2024-01-25T10:50:00,hld,10.89
2024-01-25T10:51:00,hld,10.69
2024-01-25T10:52:00,hld,10.64
2024-01-25T10:53:00,hld,10.73
2024-01-25T10:54:00,hld,10.70
2024-01-25T10:55:00,hld,10.68
2024-01-25T10:56:00,hld,10.70
2024-01-25T10:57:00,hld,10.79
2024-01-25T10:58:00,hld,10.72
2024-01-25T10:59:00,hld,10.73
2024-01-25T11:00:00,hld,10.80
2024-01-25T11:01:00,hld,10.99
2024-01-25T11:02:00,hld,10.92
2024-01-25T11:03:00,hld,11.27
2024-01-25T11:04:00,hld,12.43
2024-01-25T11:05:00,hld,11.77
2024-01-25T11:06:00,hld,11.70
2024-01-25T11:07:00,hld,11.71
2024-01-25T11:08:00,hld,11.71
2024-01-25T11:09:00,hld,11.28
2024-01-25T11:10:00,hld,11.15
2024-01-25T11:11:00,hld,11.13
2024-01-25T11:12:00,hld,11.08
2024-01-25T11:13:00,hld,11.86
2024-01-25T11:14:00,hld,11.11
2024-01-25T11:15:00,hld,11.14
2024-01-25T11:16:00,hld,11.59
2024-01-25T11:17:00,hld,11.13
2024-01-25T11:18:00,hld,11.20
2024-01-25T11:19:00,hld,11.16
2024-01-25T11:20:00,hld,11.20
2024-01-25T11:21:00,hld,11.21
2024-01-25T11:22:00,hld,11.22
2024-01-25T11:23:00,hld,11.25
2024-01-25T11:24:00,hld,11.25
2024-01-25T11:25:00,hld,11.23
2024-01-25T11:26:00,hld,11.14
2024-01-25T11:27:00,hld,11.12
2024-01-25T11:28:00,hld,11.14
2024-01-25T11:29:00,hld,11.18
2024-01-25T11:30:00,hld,11.14
2024-01-25T11:31:00,hld,11.15
2024-01-25T11:32:00,hld,11.15
2024-01-25T11:33:00,hld,11.11
2024-01-25T11:34:00,hld,11.15
2024-01-25T11:35:00,hld,11.16
2024-01-25T11:36:00,hld,11.19
2024-01-25T11:37:00,hld,11.18
2024-01-25T11:38:00,hld,12.63
2024-01-25T11:39:00,hld,11.16
2024-01-25T11:40:00,hld,11.22
2024-01-25T11:41:00,hld,11.20
2024-01-25T11:42:00,hld,11.33
2024-01-25T11:43:00,hld,11.26
2024-01-25T11:44:00,hld,11.21
2024-01-25T11:45:00,hld,11.17
2024-01-25T11:46:00,hld,11.24
2024-01-25T11:47:00,hld,11.25
2024-01-25T11:48:00,hld,11.90
2024-01-25T11:49:00,hld,11.14
2024-01-25T11:50:00,hld,11.16
2024-01-25T11:51:00,hld,11.14
2024-01-25T11:52:00,hld,11.12
2024-01-25T11:53:00,hld,11.09
2024-01-25T11:54:00,hld,11.79
2024-01-25T11:55:00,hld,11.13
2024-01-25T11:56:00,hld,11.13
2024-01-25T11:57:00,hld,11.17
2024-01-25T11:58:00,hld,11.06
2024-01-25T11:59:00,hld,16.67
2024-01-25T12:00:00,hld,15.01
2024-01-25T12:01:00,hld,15.04
2024-01-25T12:02:00,hld,15.33
2024-01-25T12:03:00,hld,11.10
2024-01-25T12:04:00,hld,11.46
2024-01-25T12:05:00,hld,12.05
2024-01-25T12:06:00,hld,11.50
2024-01-25T12:07:00,hld,11.23
2024-01-25T12:08:00,hld,11.08
2024-01-25T12:09:00,hld,11.05
2024-01-25T12:10:00,hld,11.02
2024-01-25T12:11:00,hld,11.03
2024-01-25T12:12:00,hld,11.05
2024-01-25T12:13:00,hld,11.13
2024-01-25T12:14:00,hld,11.00
2024-01-25T12:15:00,hld,11.17
2024-01-25T12:16:00,hld,11.13
2024-01-25T12:17:00,hld,11.30
2024-01-25T12:18:00,hld,11.18
2024-01-25T12:19:00,hld,11.15
2024-01-25T12:20:00,hld,12.11
2024-01-25T12:21:00,hld,12.19
2024-01-25T12:22:00,hld,12.34
2024-01-25T12:23:00,hld,11.37
2024-01-25T12:24:00,hld,11.21
2024-01-25T12:25:00,hld,10.81
2024-01-25T12:26:00,hld,10.83
2024-01-25T12:27:00,hld,12.35
2024-01-25T12:28:00,hld,9.57
2024-01-25T12:29:00,hld,9.55
2024-01-25T12:30:00,hld,9.57
2024-01-25T12:31:00,hld,9.58
2024-01-25T12:32:00,hld,9.52
2024-01-25T12:33:00,hld,9.48
2024-01-25T12:34:00,hld,9.61
2024-01-25T12:35:00,hld,9.61
2024-01-25T12:36:00,hld,10.73
2024-01-25T12:37:00,hld,11.25
2024-01-25T12:38:00,hld,11.05
2024-01-25T12:39:00,hld,11.27
2024-01-25T12:40:00,hld,11.28
2024-01-25T12:41:00,hld,11.25
2024-01-25T12:42:00,hld,11.31
2024-01-25T12:43:00,hld,11.31
2024-01-25T12:44:00,hld,11.27
2024-01-25T12:45:00,hld,11.29
2024-01-25T12:46:00,hld,11.30
2024-01-25T12:47:00,hld,11.29
2024-01-25T12:48:00,hld,11.26
2024-01-25T12:49:00,hld,17.48
2024-01-25T12:50:00,hld,19.55
2024-01-25T12:51:00,hld,19.31
2024-01-25T12:52:00,hld,19.24
2024-01-25T12:53:00,hld,19.09
2024-01-25T12:54:00,hld,11.04
2024-01-25T12:55:00,hld,12.64
2024-01-25T12:56:00,hld,12.71
2024-01-25T12:57:00,hld,11.18
2024-01-25T12:58:00,hld,11.34
2024-01-25T12:59:00,hld,11.26
2024-01-25T13:00:00,hld,11.24
2024-01-25T13:01:00,hld,15.22
2024-01-25T13:02:00,hld,15.18
2024-01-25T13:03:00,hld,15.21
2024-01-25T13:04:00,hld,15.19
2024-01-25T13:05:00,hld,15.24
2024-01-25T13:06:00,hld,11.22
2024-01-25T13:07:00,hld,11.29
2024-01-25T13:08:00,hld,11.15
2024-01-25T13:09:00,hld,11.24
2024-01-25T13:10:00,hld,11.13
2024-01-25T13:11:00,hld,11.13
2024-01-25T13:12:00,hld,11.11
2024-01-25T13:13:00,hld,11.08
2024-01-25T13:14:00,hld,12.75
2024-01-25T13:15:00,hld,12.61
2024-01-25T13:16:00,hld,10.99
2024-01-25T13:17:00,hld,11.05
2024-01-25T13:18:00,hld,11.04
2024-01-25T13:19:00,hld,11.06
2024-01-25T13:20:00,hld,11.06
2024-01-25T13:21:00,hld,11.06
2024-01-25T13:22:00,hld,11.02
2024-01-25T13:23:00,hld,11.01
2024-01-25T13:24:00,hld,11.24
2024-01-25T13:25:00,hld,11.21
2024-01-25T13:26:00,hld,11.03
2024-01-25T13:27:00,hld,11.01
2024-01-25T13:28:00,hld,11.01
2024-01-25T13:29:00,hld,10.99
2024-01-25T13:30:00,hld,10.96
2024-01-25T13:31:00,hld,10.99
2024-01-25T13:32:00,hld,10.96
2024-01-25T13:33:00,hld,11.02
2024-01-25T13:34:00,hld,11.03
2024-01-25T13:35:00,hld,11.02
2024-01-25T13:36:00,hld,10.99
2024-01-25T13:37:00,hld,10.92